Regional Weather Roundup
Issued by NWS Cleveland, OH

Home | Current Version | Previous Version | Text Only | Print | Product List | Glossary Off
Versions: 1 2 3 4 5 6 7 8 9 10 11 12 13 14 15 16 17 18 19 20 21 22 23 24 25 26 27 28 29 30 31 32 33 34 35 36 37 38 39 40 41 42 43 44 45 46 47 48 49 50

000
ASUS41 KCLE 020202
RWRCLE
OHIO REGIONAL WEATHER ROUNDUP
NATIONAL WEATHER SERVICE CLEVELAND, OH
1000 PM EDT MON JUN 01 2015

NOTE: "FAIR" INDICATES FEW OR NO CLOUDS BELOW 12,000 FEET WITH NO
SIGNIFICANT WEATHER AND/OR OBSTRUCTIONS TO VISIBILITY.

OHZ001>008-015>018-024>027-034-035-043-044-020300-
   NORTHWEST OHIO

CITY           SKY/WX    TMP DP  RH WIND       PRES   REMARKS
DEFIANCE       CLOUDY    55  48  77 E3        30.20R
FINDLAY        CLOUDY    54  47  77 NE5       30.19R
TOLEDO EXPRESS CLOUDY    51  46  83 CALM      30.19S
TOLEDO EXEC    CLOUDY    56  48  74 NE3       30.20S
LIMA           CLOUDY    51  47  86 CALM      30.19R
$$

OHZ009>014-019>023-028>033-038-089-020300-
   NORTHEAST OHIO

CITY           SKY/WX    TMP DP  RH WIND       PRES   REMARKS
CLE-HOPKINS    CLOUDY    53  46  77 NE7       30.19S
CLE-LAKEFRONT  CLOUDY    54  47  77 NE8       30.17R
CUY CO. ARPT   CLOUDY    52 N/A N/A NE9       30.18S
LORAIN-ELYRIA  CLOUDY    52  47  83 NE3       30.19R
ASHTABULA      CLOUDY    52  48  86 NE5       30.18S
AKRON-CANTON   CLOUDY    52  46  80 NE8       30.16R
WOOSTER        CLOUDY    51  47  86 NE8       30.16S
MANSFIELD      CLOUDY    50  48  93 N8        30.17R
YOUNGSTOWN     LGT RAIN  51  47  86 NE8       30.15S
$$

OHZ042-051>053-060>062-070>072-077>081-020300-
  SOUTHWEST OHIO

CITY           SKY/WX    TMP DP  RH WIND       PRES   REMARKS
CINC-COVINGTON CLOUDY    57  51  80 NE10      30.14R
CINC-LUNKEN    CLOUDY    57  52  83 NE9       30.15R
HAMILTON       CLOUDY    56  51  84 NE8       30.16R
DAYTON         CLOUDY    54  49  83 NE9       30.17S
WRIGHT-PAT AFB MOCLDY    54  49  85 NE9       30.16S
DAYTON GENERAL CLOUDY    54  50  86 NE13G21   30.14F
WILMINGTON     CLOUDY    53  48  83 N10       30.14S
$$

OHZ036-037-039>041-045>050-054>059-063>069-073>076-082>088-020300-
  CENTRAL AND SOUTHEAST OHIO

CITY           SKY/WX    TMP DP  RH WIND       PRES   REMARKS
COLUMBUS       CLOUDY    54  49  83 N8        30.15R
OSU AIRPORT    CLOUDY    52  48  86 N6        30.16R
BOLTON FIELD   NOT AVBL
RICKENBACK AFB NOT AVBL
NEWARK         CLOUDY    53  49  86 N3        30.15R
MARION         CLOUDY    52  47  83 N8        30.19R
LANCASTER      CLOUDY    54  50  86 N7        30.15S
ZANESVILLE     NOT AVBL
NEW PHILLY     CLOUDY    53  48  83 N3        30.15R
$$



USA.gov is the U.S. government's official web portal to all federal, state and local government web resources and services.